Time,TemperatureF,DewpointF,PressureIn,WindDirection,WindDirectionDegrees,WindSpeedMPH,WindSpeedGustMPH,Humidity,HourlyPrecipIn,Conditions,Clouds,dailyrainin,SoftwareType,DateUTC
2013-02-24 00:03:00,28.8,28.5,0.00,North,0,18.7,-999.0,98,0.00,,,-99.99,,2013-02-24 09:03:00,
2013-02-24 00:08:00,28.7,28.5,0.00,North,0,15.6,-999.0,98,0.00,,,-99.99,,2013-02-24 09:08:00,
2013-02-24 00:13:00,28.8,28.5,0.00,NNW,340,17.0,-999.0,98,0.00,,,-99.99,,2013-02-24 09:13:00,
2013-02-24 00:18:00,28.7,28.4,0.00,NNW,338,16.3,-999.0,98,0.00,,,-99.99,,2013-02-24 09:18:00,
2013-02-24 00:24:00,28.7,28.4,0.00,NNW,328,18.4,-999.0,98,0.00,,,-99.99,,2013-02-24 09:24:00,
2013-02-24 00:29:00,28.6,28.3,0.00,NW,321,16.4,-999.0,98,0.00,,,-99.99,,2013-02-24 09:29:00,
2013-02-24 00:34:00,28.6,28.3,0.00,NW,312,18.9,-999.0,98,0.00,,,-99.99,,2013-02-24 09:34:00,
2013-02-24 00:39:00,28.6,28.3,0.00,ESE,120,2.8,-999.0,98,0.00,,,-99.99,,2013-02-24 09:39:00,
2013-02-24 00:44:00,28.9,28.7,0.00,ENE,71,4.0,-999.0,99,0.01,,,-99.99,,2013-02-24 09:44:00,
2013-02-24 00:51:00,29.0,28.8,0.00,NE,53,5.2,-999.0,99,0.01,,,-99.99,,2013-02-24 09:51:00,
2013-02-24 00:56:00,29.1,28.8,0.00,West,271,2.5,-999.0,99,0.01,,,-99.99,,2013-02-24 09:56:00,
2013-02-24 01:03:00,29.4,29.1,0.00,NW,309,2.1,-999.0,99,0.00,,,-99.99,,2013-02-24 10:03:00,
2013-02-24 01:08:00,29.1,28.8,0.00,WNW,284,10.3,-999.0,99,0.00,,,-99.99,,2013-02-24 10:08:00,
2013-02-24 01:13:00,29.1,28.9,0.00,NNW,328,5.4,-999.0,99,0.00,,,-99.99,,2013-02-24 10:13:00,
2013-02-24 01:18:00,29.1,28.9,0.00,West,269,12.9,-999.0,99,0.00,,,-99.99,,2013-02-24 10:18:00,
2013-02-24 01:23:00,29.4,29.1,0.00,South,186,2.9,-999.0,99,0.00,,,-99.99,,2013-02-24 10:23:00,
2013-02-24 01:29:00,29.3,29.1,0.00,NW,318,27.2,-999.0,99,0.00,,,-99.99,,2013-02-24 10:29:00,
2013-02-24 01:34:00,29.4,29.1,0.00,NW,326,28.0,-999.0,99,0.01,,,-99.99,,2013-02-24 10:34:00,
2013-02-24 01:39:00,29.3,29.0,0.00,NNW,333,28.8,-999.0,99,0.01,,,-99.99,,2013-02-24 10:39:00,
2013-02-24 01:44:00,29.2,28.9,0.00,NNW,347,27.6,-999.0,99,0.01,,,-99.99,,2013-02-24 10:44:00,
2013-02-24 01:49:00,29.1,28.8,0.00,NNW,340,29.8,-999.0,99,0.01,,,-99.99,,2013-02-24 10:49:00,
2013-02-24 01:55:00,29.0,28.7,0.00,NNW,342,22.0,-999.0,99,0.01,,,-99.99,,2013-02-24 10:55:00,
2013-02-24 02:00:00,29.2,29.0,0.00,NNW,335,18.5,-999.0,99,0.00,,,-99.99,,2013-02-24 11:00:00,
2013-02-24 02:05:00,29.3,29.0,0.00,NNW,336,23.4,-999.0,99,0.00,,,-99.99,,2013-02-24 11:05:00,
2013-02-24 02:10:00,29.3,29.1,0.00,NNW,329,27.4,-999.0,99,0.00,,,-99.99,,2013-02-24 11:10:00,
2013-02-24 02:15:00,29.6,29.3,0.00,NNW,329,30.6,-999.0,99,0.00,,,-99.99,,2013-02-24 11:15:00,
2013-02-24 02:21:00,29.3,29.0,0.00,WNW,292,7.5,-999.0,99,0.01,,,-99.99,,2013-02-24 11:21:00,
2013-02-24 02:26:00,29.0,28.8,0.00,WSW,248,11.9,-999.0,99,0.02,,,-99.99,,2013-02-24 11:26:00,
2013-02-24 02:31:00,29.3,29.1,0.00,NW,317,33.5,-999.0,99,1.25,,,-99.99,,2013-02-24 11:31:00,
2013-02-24 02:36:00,29.3,29.1,0.00,NW,326,28.9,-999.0,99,1.25,,,-99.99,,2013-02-24 11:36:00,
2013-02-24 02:41:00,29.3,29.1,0.00,NNW,327,27.1,-999.0,99,1.25,,,-99.99,,2013-02-24 11:41:00,
2013-02-24 02:47:00,29.4,29.1,0.00,NNW,341,23.2,-999.0,99,1.25,,,-99.99,,2013-02-24 11:47:00,
2013-02-24 02:52:00,29.5,29.2,0.00,NNW,332,27.0,-999.0,99,1.25,,,-99.99,,2013-02-24 11:52:00,
2013-02-24 02:57:00,29.5,29.3,0.00,NW,324,30.1,-999.0,99,1.25,,,-99.99,,2013-02-24 11:57:00,
2013-02-24 03:02:00,29.6,29.4,0.00,NW,319,22.5,-999.0,99,0.00,,,-99.99,,2013-02-24 12:02:00,
2013-02-24 03:07:00,29.6,29.4,0.00,NW,324,27.1,-999.0,99,0.00,,,-99.99,,2013-02-24 12:07:00,
2013-02-24 03:13:00,29.7,29.5,0.00,NW,320,23.5,-999.0,99,0.00,,,-99.99,,2013-02-24 12:13:00,
2013-02-24 03:18:00,29.6,29.4,0.00,SW,223,3.8,-999.0,99,0.01,,,-99.99,,2013-02-24 12:18:00,
2013-02-24 03:23:00,29.8,29.6,0.00,NNE,26,7.2,-999.0,99,0.01,,,-99.99,,2013-02-24 12:23:00,
2013-02-24 03:28:00,29.8,29.6,0.00,WSW,240,2.6,-999.0,99,0.01,,,-99.99,,2013-02-24 12:28:00,
2013-02-24 03:33:00,29.8,29.6,0.00,West,279,2.6,-999.0,99,0.01,,,-99.99,,2013-02-24 12:33:00,
2013-02-24 03:39:00,30.1,29.9,0.00,North,4,4.2,-999.0,99,0.01,,,-99.99,,2013-02-24 12:39:00,
2013-02-24 03:44:00,30.1,29.9,0.00,WNW,285,18.0,-999.0,99,0.03,,,-99.99,,2013-02-24 12:44:00,
2013-02-24 03:49:00,30.1,29.9,0.00,WSW,253,4.6,-999.0,99,0.04,,,-99.99,,2013-02-24 12:49:00,
2013-02-24 03:54:00,30.0,29.8,0.00,WNW,290,5.5,-999.0,99,0.04,,,-99.99,,2013-02-24 12:54:00,
2013-02-24 03:59:00,29.7,29.5,0.00,NW,315,21.9,-999.0,99,0.00,,,-99.99,,2013-02-24 12:59:00,
2013-02-24 04:05:00,29.8,29.6,0.00,SSW,209,9.0,-999.0,99,0.00,,,-99.99,,2013-02-24 13:05:00,
2013-02-24 04:10:00,29.6,29.4,0.00,NW,310,22.5,-999.0,99,0.00,,,-99.99,,2013-02-24 13:10:00,
2013-02-24 04:15:00,29.8,29.6,0.00,SSW,204,7.5,-999.0,99,0.00,,,-99.99,,2013-02-24 13:15:00,
2013-02-24 04:20:00,30.0,29.8,0.00,NE,51,2.0,-999.0,99,0.00,,,-99.99,,2013-02-24 13:20:00,
2013-02-24 04:25:00,30.0,29.8,0.00,SSE,150,2.0,-999.0,99,0.01,,,-99.99,,2013-02-24 13:25:00,
2013-02-24 04:31:00,30.0,29.8,0.00,NW,315,5.0,-999.0,99,0.01,,,-99.99,,2013-02-24 13:31:00,
2013-02-24 04:36:00,30.1,29.9,0.00,SW,222,1.8,-999.0,99,0.03,,,-99.99,,2013-02-24 13:36:00,
2013-02-24 04:41:00,30.0,29.8,0.00,West,278,7.1,-999.0,99,0.03,,,-99.99,,2013-02-24 13:41:00,
2013-02-24 04:46:00,29.8,29.6,0.00,ENE,62,7.7,-999.0,99,0.03,,,-99.99,,2013-02-24 13:46:00,
2013-02-24 04:51:00,29.8,29.6,0.00,NNW,327,20.0,-999.0,99,0.05,,,-99.99,,2013-02-24 13:51:00,
2013-02-24 04:57:00,30.0,29.8,0.00,ESE,119,2.8,-999.0,99,0.07,,,-99.99,,2013-02-24 13:57:00,
2013-02-24 05:02:00,30.2,30.0,0.00,WNW,293,9.4,-999.0,99,0.00,,,-99.99,,2013-02-24 14:02:00,
2013-02-24 05:07:00,30.4,30.2,0.00,West,275,1.0,-999.0,99,0.00,,,-99.99,,2013-02-24 14:07:00,
2013-02-24 05:12:00,30.4,30.3,0.00,ENE,76,0.8,-999.0,99,0.03,,,-99.99,,2013-02-24 14:12:00,
2013-02-24 05:17:00,30.2,30.0,0.00,SSE,166,10.4,-999.0,99,0.06,,,-99.99,,2013-02-24 14:17:00,
2013-02-24 05:23:00,30.1,29.9,0.00,ESE,106,6.0,-999.0,99,0.12,,,-99.99,,2013-02-24 14:23:00,
2013-02-24 05:28:00,30.3,30.1,0.00,SW,222,7.5,-999.0,99,0.12,,,-99.99,,2013-02-24 14:28:00,
2013-02-24 05:33:00,30.4,30.2,0.00,NW,317,3.5,-999.0,99,0.25,,,-99.99,,2013-02-24 14:33:00,
2013-02-24 05:38:00,30.6,30.5,0.00,NNE,22,8.7,-999.0,99,0.25,,,-99.99,,2013-02-24 14:38:00,
2013-02-24 05:43:00,30.7,30.5,0.00,NW,311,10.8,-999.0,99,0.28,,,-99.99,,2013-02-24 14:43:00,
2013-02-24 05:49:00,31.0,30.8,0.00,SE,131,5.7,-999.0,99,0.28,,,-99.99,,2013-02-24 14:49:00,
2013-02-24 05:54:00,31.0,30.8,0.00,ENE,77,2.1,-999.0,99,0.33,,,-99.99,,2013-02-24 14:54:00,
2013-02-24 05:59:00,31.1,31.0,0.00,SE,133,0.5,-999.0,99,0.00,,,-99.99,,2013-02-24 14:59:00,
2013-02-24 06:04:00,31.3,31.1,0.00,SSE,163,11.8,-999.0,99,0.02,,,-99.99,,2013-02-24 15:04:00,
2013-02-24 06:09:00,31.3,31.2,0.00,NE,46,7.1,-999.0,99,0.02,,,-99.99,,2013-02-24 15:09:00,
2013-02-24 06:15:00,31.3,31.2,0.00,ENE,67,5.2,-999.0,99,0.03,,,-99.99,,2013-02-24 15:15:00,
2013-02-24 06:20:00,31.5,31.4,0.00,West,275,15.2,-999.0,99,0.04,,,-99.99,,2013-02-24 15:20:00,
2013-02-24 06:25:00,31.5,31.3,0.00,WNW,285,4.7,-999.0,99,0.05,,,-99.99,,2013-02-24 15:25:00,
2013-02-24 06:30:00,31.5,31.4,0.00,NNE,27,5.2,-999.0,99,0.13,,,-99.99,,2013-02-24 15:30:00,
2013-02-24 06:35:00,31.6,31.5,0.00,SSW,209,8.5,-999.0,99,0.15,,,-99.99,,2013-02-24 15:35:00,
2013-02-24 06:41:00,31.5,31.4,0.00,SSE,158,2.4,-999.0,99,0.15,,,-99.99,,2013-02-24 15:41:00,
2013-02-24 06:46:00,31.5,31.5,0.00,North,0,2.5,-999.0,99,0.15,,,-99.99,,2013-02-24 15:46:00,
2013-02-24 06:51:00,31.5,31.4,0.00,WSW,256,3.3,-999.0,99,0.15,,,-99.99,,2013-02-24 15:51:00,
2013-02-24 06:56:00,31.5,31.4,0.00,West,275,0.9,-999.0,99,0.15,,,-99.99,,2013-02-24 15:56:00,
2013-02-24 07:01:00,31.4,31.4,0.00,ENE,73,3.2,-999.0,99,0.00,,,-99.99,,2013-02-24 16:01:00,
2013-02-24 07:06:00,31.4,31.3,0.00,West,279,13.2,-999.0,99,0.00,,,-99.99,,2013-02-24 16:06:00,
2013-02-24 07:11:00,31.2,31.0,0.00,SSW,209,10.4,-999.0,100,0.01,,,-99.99,,2013-02-24 16:11:00,
2013-02-24 07:16:00,31.1,31.0,0.00,WNW,282,17.3,-999.0,100,0.01,,,-99.99,,2013-02-24 16:16:00,
2013-02-24 07:21:00,31.1,31.0,0.00,NNW,346,17.5,-999.0,100,0.01,,,-99.99,,2013-02-24 16:21:00,
2013-02-24 07:27:00,31.0,30.0,0.00,West,278,17.5,-999.0,100,0.01,,,-99.99,,2013-02-24 16:27:00,
2013-02-24 07:33:00,30.9,30.0,0.00,West,279,16.5,-999.0,100,0.01,,,-99.99,,2013-02-24 16:33:00,
2013-02-24 07:38:00,31.0,30.9,0.00,West,261,19.8,-999.0,99,0.01,,,-99.99,,2013-02-24 16:38:00,
2013-02-24 07:44:00,30.9,30.0,0.00,West,277,14.0,-999.0,100,0.01,,,-99.99,,2013-02-24 16:44:00,
2013-02-24 07:49:00,30.9,30.8,0.00,West,261,9.4,-999.0,99,0.01,,,-99.99,,2013-02-24 16:49:00,
2013-02-24 07:54:00,31.0,31.0,0.00,WSW,254,9.3,-999.0,100,0.01,,,-99.99,,2013-02-24 16:54:00,
2013-02-24 07:59:00,31.0,30.9,0.00,WSW,247,14.2,-999.0,99,0.00,,,-99.99,,2013-02-24 16:59:00,
2013-02-24 08:04:00,30.7,30.0,0.00,WSW,256,15.6,-999.0,100,0.00,,,-99.99,,2013-02-24 17:04:00,
2013-02-24 08:09:00,30.8,30.7,0.00,WSW,257,12.2,-999.0,99,0.00,,,-99.99,,2013-02-24 17:09:00,
2013-02-24 08:14:00,30.5,30.5,0.00,WSW,254,14.4,-999.0,99,0.00,,,-99.99,,2013-02-24 17:14:00,
2013-02-24 08:20:00,30.7,30.7,0.00,SW,228,10.4,-999.0,99,0.00,,,-99.99,,2013-02-24 17:20:00,
2013-02-24 08:25:00,30.8,30.7,0.00,WSW,247,12.0,-999.0,99,0.00,,,-99.99,,2013-02-24 17:25:00,
2013-02-24 08:31:00,30.8,30.7,0.00,SW,214,7.8,-999.0,99,0.00,,,-99.99,,2013-02-24 17:31:00,
2013-02-24 08:36:00,30.8,30.7,0.00,SW,229,9.3,-999.0,99,0.00,,,-99.99,,2013-02-24 17:36:00,
2013-02-24 08:41:00,30.7,30.6,0.00,SSW,199,6.8,-999.0,99,0.00,,,-99.99,,2013-02-24 17:41:00,
2013-02-24 08:46:00,30.8,30.7,0.00,SW,217,10.4,-999.0,99,0.00,,,-99.99,,2013-02-24 17:46:00,
2013-02-24 08:51:00,30.9,30.8,0.00,SSW,207,11.2,-999.0,99,0.01,,,-99.99,,2013-02-24 17:51:00,
2013-02-24 08:56:00,30.9,30.8,0.00,SW,218,7.2,-999.0,99,0.01,,,-99.99,,2013-02-24 17:56:00,
2013-02-24 09:01:00,30.8,30.7,0.00,SSW,207,13.7,-999.0,99,0.00,,,-99.99,,2013-02-24 18:01:00,
2013-02-24 09:06:00,30.7,30.6,0.00,SSW,201,13.9,-999.0,99,0.00,,,-99.99,,2013-02-24 18:06:00,
2013-02-24 09:11:00,30.6,30.5,0.00,South,180,13.5,-999.0,99,0.00,,,-99.99,,2013-02-24 18:11:00,
2013-02-24 09:16:00,30.7,30.6,0.00,South,171,13.1,-999.0,99,0.00,,,-99.99,,2013-02-24 18:16:00,
2013-02-24 09:21:00,30.6,30.5,0.00,South,173,13.8,-999.0,99,0.00,,,-99.99,,2013-02-24 18:21:00,
2013-02-24 09:26:00,30.5,30.4,0.00,South,174,15.9,-999.0,99,0.00,,,-99.99,,2013-02-24 18:26:00,
2013-02-24 09:31:00,30.5,30.4,0.00,SSE,162,15.2,-999.0,99,0.00,,,-99.99,,2013-02-24 18:31:00,
2013-02-24 09:36:00,30.8,30.7,0.00,SSE,148,14.6,-999.0,99,0.00,,,-99.99,,2013-02-24 18:36:00,
2013-02-24 09:41:00,30.9,30.7,0.00,SSE,160,15.1,-999.0,99,0.02,,,-99.99,,2013-02-24 18:41:00,
2013-02-24 09:46:00,30.9,30.8,0.00,South,169,13.5,-999.0,99,0.02,,,-99.99,,2013-02-24 18:46:00,
2013-02-24 09:51:00,30.8,30.7,0.00,SSE,163,13.4,-999.0,99,0.02,,,-99.99,,2013-02-24 18:51:00,
2013-02-24 09:56:00,30.7,30.5,0.00,SE,143,12.2,-999.0,99,0.02,,,-99.99,,2013-02-24 18:56:00,
2013-02-24 10:02:00,30.7,30.5,0.00,SSE,149,11.8,-999.0,99,0.00,,,-99.99,,2013-02-24 19:02:00,
2013-02-24 10:07:00,30.7,30.6,0.00,SSE,159,11.0,-999.0,99,0.00,,,-99.99,,2013-02-24 19:07:00,
2013-02-24 10:12:00,30.7,30.6,0.00,SSE,168,9.3,-999.0,99,0.00,,,-99.99,,2013-02-24 19:12:00,
2013-02-24 10:17:00,30.8,30.7,0.00,SSE,156,12.1,-999.0,99,0.00,,,-99.99,,2013-02-24 19:17:00,
2013-02-24 10:22:00,30.9,30.8,0.00,SSE,155,12.6,-999.0,99,0.00,,,-99.99,,2013-02-24 19:22:00,
2013-02-24 10:27:00,30.9,30.8,0.00,SSE,148,12.8,-999.0,99,0.00,,,-99.99,,2013-02-24 19:27:00,
2013-02-24 10:32:00,30.9,30.8,0.00,SSE,164,11.7,-999.0,99,0.00,,,-99.99,,2013-02-24 19:32:00,
2013-02-24 10:38:00,30.9,30.8,0.00,SSE,149,14.1,-999.0,99,0.00,,,-99.99,,2013-02-24 19:38:00,
2013-02-24 10:43:00,30.7,30.6,0.00,SE,139,14.6,-999.0,99,0.00,,,-99.99,,2013-02-24 19:43:00,
2013-02-24 10:48:00,30.7,30.5,0.00,SE,143,15.1,-999.0,99,0.00,,,-99.99,,2013-02-24 19:48:00,
2013-02-24 10:53:00,30.6,30.5,0.00,SE,145,7.0,-999.0,99,0.00,,,-99.99,,2013-02-24 19:53:00,
2013-02-24 10:58:00,30.7,30.6,0.00,SE,133,13.3,-999.0,99,0.00,,,-99.99,,2013-02-24 19:58:00,
2013-02-24 11:03:00,30.7,30.6,0.00,SE,143,18.0,-999.0,99,0.00,,,-99.99,,2013-02-24 20:03:00,
2013-02-24 11:08:00,30.7,30.6,0.00,SSE,153,8.9,-999.0,99,0.00,,,-99.99,,2013-02-24 20:08:00,
2013-02-24 11:14:00,30.9,30.7,0.00,SSE,150,13.1,-999.0,99,0.00,,,-99.99,,2013-02-24 20:14:00,
2013-02-24 11:19:00,30.8,30.7,0.00,SSE,156,16.4,-999.0,99,0.00,,,-99.99,,2013-02-24 20:19:00,
2013-02-24 11:24:00,31.0,30.9,0.00,SE,138,17.1,-999.0,99,0.00,,,-99.99,,2013-02-24 20:24:00,
2013-02-24 11:30:00,31.1,31.0,0.00,SE,138,13.6,-999.0,99,0.00,,,-99.99,,2013-02-24 20:30:00,
2013-02-24 11:35:00,31.1,31.0,0.00,SE,146,15.6,-999.0,99,0.00,,,-99.99,,2013-02-24 20:35:00,
2013-02-24 11:40:00,31.0,30.9,0.00,SSE,155,12.5,-999.0,99,0.00,,,-99.99,,2013-02-24 20:40:00,
2013-02-24 11:45:00,30.8,30.7,0.00,SE,146,12.8,-999.0,99,0.00,,,-99.99,,2013-02-24 20:45:00,
2013-02-24 11:50:00,30.8,30.7,0.00,SE,146,12.4,-999.0,99,0.00,,,-99.99,,2013-02-24 20:50:00,
2013-02-24 11:55:00,30.7,30.6,0.00,SE,142,12.8,-999.0,99,0.00,,,-99.99,,2013-02-24 20:55:00,
2013-02-24 12:00:00,30.8,30.7,0.00,ESE,123,13.8,-999.0,99,0.00,,,-99.99,,2013-02-24 21:00:00,
2013-02-24 12:06:00,30.7,30.5,0.00,SE,137,24.7,-999.0,99,0.00,,,-99.99,,2013-02-24 21:06:00,
2013-02-24 12:11:00,30.8,30.7,0.00,SE,144,15.6,-999.0,99,0.00,,,-99.99,,2013-02-24 21:11:00,
2013-02-24 12:16:00,30.8,30.7,0.00,SE,144,14.2,-999.0,99,0.00,,,-99.99,,2013-02-24 21:16:00,
2013-02-24 12:21:00,31.0,30.9,0.00,SE,146,24.7,-999.0,99,0.00,,,-99.99,,2013-02-24 21:21:00,
2013-02-24 12:26:00,31.0,30.9,0.00,SSE,148,19.3,-999.0,99,0.00,,,-99.99,,2013-02-24 21:26:00,
2013-02-24 12:32:00,31.0,30.9,0.00,SSE,155,20.5,-999.0,99,0.00,,,-99.99,,2013-02-24 21:32:00,
2013-02-24 12:37:00,31.1,31.1,0.00,SE,125,17.8,-999.0,99,0.00,,,-99.99,,2013-02-24 21:37:00,
2013-02-24 12:42:00,31.1,31.0,0.00,SE,137,12.2,-999.0,99,0.00,,,-99.99,,2013-02-24 21:42:00,
2013-02-24 12:47:00,31.1,31.0,0.00,SSE,159,13.4,-999.0,99,0.00,,,-99.99,,2013-02-24 21:47:00,
2013-02-24 12:52:00,31.3,31.2,0.00,SE,136,16.7,-999.0,99,0.00,,,-99.99,,2013-02-24 21:52:00,
2013-02-24 12:58:00,31.1,31.0,0.00,SE,126,18.6,-999.0,99,0.00,,,-99.99,,2013-02-24 21:58:00,
2013-02-24 13:03:00,31.1,31.0,0.00,SE,145,20.9,-999.0,99,0.01,,,-99.99,,2013-02-24 22:03:00,
2013-02-24 13:08:00,31.1,31.1,0.00,SSE,154,10.5,-999.0,99,0.02,,,-99.99,,2013-02-24 22:08:00,
2013-02-24 13:13:00,31.0,30.9,0.00,SSE,158,13.2,-999.0,99,0.02,,,-99.99,,2013-02-24 22:13:00,
2013-02-24 13:18:00,31.1,31.0,0.00,SE,140,11.2,-999.0,99,0.02,,,-99.99,,2013-02-24 22:18:00,
2013-02-24 13:24:00,31.0,30.9,0.00,ESE,121,12.7,-999.0,99,0.02,,,-99.99,,2013-02-24 22:24:00,
2013-02-24 13:29:00,31.2,31.1,0.00,ESE,116,21.7,-999.0,99,0.02,,,-99.99,,2013-02-24 22:29:00,
2013-02-24 13:34:00,31.3,31.2,0.00,SE,137,11.2,-999.0,99,0.02,,,-99.99,,2013-02-24 22:34:00,
2013-02-24 13:39:00,31.2,31.1,0.00,SE,125,16.6,-999.0,99,0.02,,,-99.99,,2013-02-24 22:39:00,
2013-02-24 13:44:00,31.4,31.3,0.00,SE,133,11.8,-999.0,99,0.02,,,-99.99,,2013-02-24 22:44:00,
2013-02-24 13:50:00,31.6,31.5,0.00,ESE,121,7.3,-999.0,99,0.02,,,-99.99,,2013-02-24 22:50:00,
2013-02-24 13:55:00,31.3,31.2,0.00,SE,144,10.2,-999.0,99,0.02,,,-99.99,,2013-02-24 22:55:00,
2013-02-24 14:00:00,31.5,31.3,0.00,SE,131,10.5,-999.0,99,0.00,,,-99.99,,2013-02-24 23:00:00,
2013-02-24 14:05:00,31.3,31.2,0.00,SE,133,13.5,-999.0,99,0.02,,,-99.99,,2013-02-24 23:05:00,
2013-02-24 14:10:00,31.2,31.1,0.00,ESE,117,15.7,-999.0,99,0.02,,,-99.99,,2013-02-24 23:10:00,
2013-02-24 14:16:00,31.1,31.0,0.00,East,99,13.5,-999.0,99,0.02,,,-99.99,,2013-02-24 23:16:00,
2013-02-24 14:21:00,31.3,31.3,0.00,East,88,14.9,-999.0,99,0.02,,,-99.99,,2013-02-24 23:21:00,
2013-02-24 14:26:00,31.4,31.3,0.00,SE,141,14.3,-999.0,99,0.02,,,-99.99,,2013-02-24 23:26:00,
2013-02-24 14:31:00,31.3,31.2,0.00,ESE,106,9.4,-999.0,99,0.02,,,-99.99,,2013-02-24 23:31:00,
2013-02-24 14:36:00,31.3,31.2,0.00,SE,129,6.0,-999.0,99,0.02,,,-99.99,,2013-02-24 23:36:00,
2013-02-24 14:42:00,31.2,31.1,0.00,SE,128,6.6,-999.0,99,0.02,,,-99.99,,2013-02-24 23:42:00,
2013-02-24 14:48:00,31.1,31.0,0.00,SE,128,8.0,-999.0,99,0.02,,,-99.99,,2013-02-24 23:48:00,
2013-02-24 14:55:00,31.4,31.3,0.00,East,101,8.0,-999.0,99,0.02,,,-99.99,,2013-02-24 23:55:00,
2013-02-24 15:00:00,31.2,31.1,0.00,SE,134,6.0,-999.0,99,0.00,,,-99.99,,2013-02-25 00:00:00,
2013-02-24 15:05:00,31.1,31.0,0.00,SE,132,9.4,-999.0,99,0.00,,,-99.99,,2013-02-25 00:05:00,
2013-02-24 15:10:00,31.1,31.0,0.00,SE,137,10.6,-999.0,99,0.00,,,-99.99,,2013-02-25 00:10:00,
2013-02-24 15:15:00,31.2,31.2,0.00,East,92,5.8,-999.0,99,0.00,,,-99.99,,2013-02-25 00:15:00,
2013-02-24 15:21:00,31.1,31.0,0.00,ENE,74,10.4,-999.0,99,0.00,,,-99.99,,2013-02-25 00:21:00,
2013-02-24 15:26:00,31.0,30.9,0.00,ESE,105,19.4,-999.0,99,0.01,,,-99.99,,2013-02-25 00:26:00,
2013-02-24 15:31:00,31.0,30.9,0.00,SE,134,12.1,-999.0,99,0.01,,,-99.99,,2013-02-25 00:31:00,
2013-02-24 15:36:00,31.1,31.0,0.00,SE,131,13.0,-999.0,99,0.01,,,-99.99,,2013-02-25 00:36:00,
2013-02-24 15:41:00,31.0,30.9,0.00,ESE,117,10.4,-999.0,99,0.01,,,-99.99,,2013-02-25 00:41:00,
2013-02-24 15:47:00,31.0,30.9,0.00,ESE,105,7.1,-999.0,99,0.01,,,-99.99,,2013-02-25 00:47:00,
2013-02-24 15:52:00,31.0,30.8,0.00,SE,139,8.0,-999.0,99,0.01,,,-99.99,,2013-02-25 00:52:00,
2013-02-24 15:57:00,31.0,30.9,0.00,ESE,106,10.6,-999.0,99,0.01,,,-99.99,,2013-02-25 00:57:00,
2013-02-24 16:02:00,30.9,30.8,0.00,SE,125,13.4,-999.0,99,0.00,,,-99.99,,2013-02-25 01:02:00,
2013-02-24 16:07:00,30.7,30.6,0.00,SE,130,5.4,-999.0,99,0.00,,,-99.99,,2013-02-25 01:07:00,
2013-02-24 16:13:00,30.9,30.8,0.00,East,92,5.8,-999.0,99,0.00,,,-99.99,,2013-02-25 01:13:00,
2013-02-24 16:18:00,31.0,30.9,0.00,ENE,63,10.2,-999.0,99,0.00,,,-99.99,,2013-02-25 01:18:00,
2013-02-24 16:23:00,31.1,30.9,0.00,ESE,123,6.4,-999.0,99,0.00,,,-99.99,,2013-02-25 01:23:00,
2013-02-24 16:28:00,31.1,31.0,0.00,SE,134,6.1,-999.0,99,0.00,,,-99.99,,2013-02-25 01:28:00,
2013-02-24 16:33:00,31.2,31.1,0.00,SE,130,4.3,-999.0,99,0.00,,,-99.99,,2013-02-25 01:33:00,
2013-02-24 16:39:00,31.2,31.0,0.00,ESE,114,8.6,-999.0,99,0.00,,,-99.99,,2013-02-25 01:39:00,
2013-02-24 16:44:00,31.2,31.0,0.00,East,82,4.9,-999.0,99,0.00,,,-99.99,,2013-02-25 01:44:00,
2013-02-24 16:49:00,31.3,31.2,0.00,East,83,11.0,-999.0,99,0.00,,,-99.99,,2013-02-25 01:49:00,
2013-02-24 16:54:00,31.2,31.1,0.00,ESE,108,8.6,-999.0,99,0.00,,,-99.99,,2013-02-25 01:54:00,
2013-02-24 16:59:00,31.0,30.9,0.00,East,82,11.4,-999.0,99,0.00,,,-99.99,,2013-02-25 01:59:00,
2013-02-24 17:05:00,31.0,30.9,0.00,East,98,14.0,-999.0,99,0.02,,,-99.99,,2013-02-25 02:05:00,
2013-02-24 17:10:00,31.0,30.9,0.00,East,96,12.3,-999.0,99,0.02,,,-99.99,,2013-02-25 02:10:00,
2013-02-24 17:15:00,31.0,30.9,0.00,East,88,10.7,-999.0,99,0.02,,,-99.99,,2013-02-25 02:15:00,
2013-02-24 17:20:00,31.1,31.0,0.00,East,93,10.1,-999.0,99,0.02,,,-99.99,,2013-02-25 02:20:00,
2013-02-24 17:25:00,31.0,30.8,0.00,East,98,10.6,-999.0,99,0.02,,,-99.99,,2013-02-25 02:25:00,
2013-02-24 17:31:00,30.7,30.5,0.00,ESE,113,9.2,-999.0,99,0.02,,,-99.99,,2013-02-25 02:31:00,
2013-02-24 17:36:00,30.4,30.2,0.00,ENE,73,11.7,-999.0,99,0.02,,,-99.99,,2013-02-25 02:36:00,
2013-02-24 17:41:00,30.5,30.3,0.00,ESE,104,8.8,-999.0,98,0.02,,,-99.99,,2013-02-25 02:41:00,
2013-02-24 17:46:00,30.6,30.4,0.00,East,88,12.9,-999.0,99,0.02,,,-99.99,,2013-02-25 02:46:00,
2013-02-24 17:52:00,30.7,30.5,0.00,East,81,14.0,-999.0,99,0.02,,,-99.99,,2013-02-25 02:52:00,
2013-02-24 17:57:00,30.7,30.5,0.00,East,96,13.9,-999.0,99,0.02,,,-99.99,,2013-02-25 02:57:00,
2013-02-24 18:02:00,30.4,30.1,0.00,ENE,72,18.5,-999.0,99,0.00,,,-99.99,,2013-02-25 03:02:00,
2013-02-24 18:07:00,29.8,29.6,0.00,East,83,17.5,-999.0,99,0.00,,,-99.99,,2013-02-25 03:07:00,
2013-02-24 18:12:00,29.6,29.4,0.00,ENE,78,17.0,-999.0,99,0.00,,,-99.99,,2013-02-25 03:12:00,
2013-02-24 18:17:00,29.5,29.3,0.00,NE,56,14.7,-999.0,99,0.00,,,-99.99,,2013-02-25 03:17:00,
2013-02-24 18:23:00,29.3,29.1,0.00,ENE,68,13.7,-999.0,99,0.00,,,-99.99,,2013-02-25 03:23:00,
2013-02-24 18:28:00,29.2,29.0,0.00,East,89,19.3,-999.0,99,0.00,,,-99.99,,2013-02-25 03:28:00,
2013-02-24 18:33:00,29.0,28.8,0.00,East,81,17.8,-999.0,99,0.00,,,-99.99,,2013-02-25 03:33:00,
2013-02-24 18:38:00,29.1,28.9,0.00,East,98,12.1,-999.0,99,0.00,,,-99.99,,2013-02-25 03:38:00,
2013-02-24 18:44:00,29.0,28.8,0.00,East,91,8.8,-999.0,99,0.00,,,-99.99,,2013-02-25 03:44:00,
2013-02-24 18:49:00,29.3,29.0,0.00,SE,127,16.3,-999.0,98,0.00,,,-99.99,,2013-02-25 03:49:00,
2013-02-24 18:55:00,29.2,28.9,0.00,ESE,121,13.7,-999.0,98,0.00,,,-99.99,,2013-02-25 03:55:00,
2013-02-24 19:02:00,29.3,28.9,0.00,SE,142,9.5,-999.0,98,0.00,,,-99.99,,2013-02-25 04:02:00,
2013-02-24 19:07:00,29.2,28.8,0.00,WNW,289,0.3,-999.0,98,0.00,,,-99.99,,2013-02-25 04:07:00,
2013-02-24 19:12:00,29.1,28.8,0.00,ENE,77,8.4,-999.0,98,0.00,,,-99.99,,2013-02-25 04:12:00,
2013-02-24 19:17:00,29.2,28.8,0.00,NW,317,4.6,-999.0,98,0.00,,,-99.99,,2013-02-25 04:17:00,
2013-02-24 19:22:00,29.1,28.8,0.00,NNE,12,3.5,-999.0,98,0.00,,,-99.99,,2013-02-25 04:22:00,
2013-02-24 19:28:00,29.1,28.8,0.00,SE,136,9.9,-999.0,98,0.00,,,-99.99,,2013-02-25 04:28:00,
2013-02-24 19:33:00,29.1,28.7,0.00,ESE,108,9.9,-999.0,98,0.00,,,-99.99,,2013-02-25 04:33:00,
2013-02-24 19:38:00,29.3,28.9,0.00,ESE,115,10.4,-999.0,98,0.00,,,-99.99,,2013-02-25 04:38:00,
2013-02-24 19:43:00,29.4,29.0,0.00,ESE,107,9.7,-999.0,98,0.00,,,-99.99,,2013-02-25 04:43:00,
2013-02-24 19:48:00,29.5,29.0,0.00,ENE,74,14.5,-999.0,98,0.00,,,-99.99,,2013-02-25 04:48:00,
2013-02-24 19:54:00,29.1,28.6,0.00,East,86,20.0,-999.0,98,0.00,,,-99.99,,2013-02-25 04:54:00,
2013-02-24 19:59:00,29.0,28.6,0.00,ENE,78,22.8,-999.0,98,0.00,,,-99.99,,2013-02-25 04:59:00,
2013-02-24 20:00:00,29.0,28.5,0.00,ENE,75,22.5,-999.0,98,0.00,,,-99.99,,2013-02-25 05:00:00,
2013-02-24 20:01:00,29.1,28.7,0.00,East,84,21.7,-999.0,98,0.00,,,-99.99,,2013-02-25 05:01:00,
2013-02-24 20:02:00,29.1,28.7,0.00,East,84,23.9,-999.0,98,0.00,,,-99.99,,2013-02-25 05:02:00,
2013-02-24 20:03:00,28.9,28.4,0.00,East,101,19.4,-999.0,98,0.00,,,-99.99,,2013-02-25 05:03:00,
2013-02-24 20:09:00,28.9,28.5,0.00,East,80,19.7,-999.0,98,0.00,,,-99.99,,2013-02-25 05:09:00,
2013-02-24 20:14:00,28.8,28.5,0.00,East,83,19.7,-999.0,98,0.00,,,-99.99,,2013-02-25 05:14:00,
2013-02-24 20:20:00,28.7,28.4,0.00,ENE,73,19.7,-999.0,98,0.00,,,-99.99,,2013-02-25 05:20:00,
2013-02-24 20:25:00,28.7,28.4,0.00,East,80,15.2,-999.0,98,0.00,,,-99.99,,2013-02-25 05:25:00,
2013-02-24 20:30:00,28.7,28.3,0.00,ENE,77,16.2,-999.0,98,0.00,,,-99.99,,2013-02-25 05:30:00,
2013-02-24 20:35:00,29.0,28.6,0.00,ENE,61,14.2,-999.0,98,0.00,,,-99.99,,2013-02-25 05:35:00,
2013-02-24 20:40:00,28.7,28.3,0.00,ENE,71,19.2,-999.0,98,0.00,,,-99.99,,2013-02-25 05:40:00,
2013-02-24 20:46:00,28.7,28.2,0.00,East,79,18.1,-999.0,98,0.00,,,-99.99,,2013-02-25 05:46:00,
2013-02-24 20:51:00,28.7,28.2,0.00,East,89,17.1,-999.0,97,0.00,,,-99.99,,2013-02-25 05:51:00,
2013-02-24 20:56:00,28.5,28.0,0.00,East,82,15.8,-999.0,97,0.00,,,-99.99,,2013-02-25 05:56:00,
2013-02-24 21:01:00,28.5,28.0,0.00,East,80,19.5,-999.0,97,0.00,,,-99.99,,2013-02-25 06:01:00,
2013-02-24 21:06:00,28.5,28.0,0.00,East,93,14.6,-999.0,97,0.00,,,-99.99,,2013-02-25 06:06:00,
2013-02-24 21:12:00,28.3,27.8,0.00,ENE,73,9.6,-999.0,97,0.00,,,-99.99,,2013-02-25 06:12:00,
2013-02-24 21:17:00,28.5,28.0,0.00,ENE,65,12.9,-999.0,97,0.00,,,-99.99,,2013-02-25 06:17:00,
2013-02-24 21:22:00,28.4,27.9,0.00,ENE,70,18.1,-999.0,97,0.00,,,-99.99,,2013-02-25 06:22:00,
2013-02-24 21:27:00,28.4,27.9,0.00,East,79,14.7,-999.0,97,0.00,,,-99.99,,2013-02-25 06:27:00,
2013-02-24 21:32:00,28.5,27.9,0.00,ENE,64,17.5,-999.0,97,0.00,,,-99.99,,2013-02-25 06:32:00,
2013-02-24 21:38:00,28.6,27.9,0.00,ENE,73,13.9,-999.0,97,0.00,,,-99.99,,2013-02-25 06:38:00,
2013-02-24 21:43:00,28.6,28.0,0.00,ENE,76,11.4,-999.0,97,0.00,,,-99.99,,2013-02-25 06:43:00,
2013-02-24 21:48:00,28.4,27.7,0.00,East,95,11.4,-999.0,97,0.00,,,-99.99,,2013-02-25 06:48:00,
2013-02-24 21:53:00,28.5,27.7,0.00,ESE,115,7.3,-999.0,96,0.00,,,-99.99,,2013-02-25 06:53:00,
2013-02-24 21:58:00,28.6,27.7,0.00,East,83,9.2,-999.0,96,0.00,,,-99.99,,2013-02-25 06:58:00,
2013-02-24 22:03:00,28.6,27.7,0.00,ENE,69,6.9,-999.0,96,0.00,,,-99.99,,2013-02-25 07:03:00,
2013-02-24 22:08:00,28.8,27.9,0.00,East,88,5.2,-999.0,96,0.00,,,-99.99,,2013-02-25 07:08:00,
2013-02-24 22:13:00,28.9,27.9,0.00,ENE,76,2.7,-999.0,96,0.00,,,-99.99,,2013-02-25 07:13:00,
2013-02-24 22:18:00,28.8,27.8,0.00,ENE,64,5.8,-999.0,96,0.00,,,-99.99,,2013-02-25 07:18:00,
2013-02-24 22:23:00,28.7,27.7,0.00,ENE,70,4.3,-999.0,95,0.00,,,-99.99,,2013-02-25 07:23:00,
2013-02-24 22:28:00,28.8,27.9,0.00,NE,44,6.1,-999.0,96,0.00,,,-99.99,,2013-02-25 07:28:00,
2013-02-24 22:33:00,28.9,27.9,0.00,NE,50,3.6,-999.0,96,0.00,,,-99.99,,2013-02-25 07:33:00,
2013-02-24 22:38:00,29.0,28.0,0.00,NE,55,9.8,-999.0,96,0.00,,,-99.99,,2013-02-25 07:38:00,
2013-02-24 22:43:00,28.8,27.8,0.00,ENE,61,11.8,-999.0,96,0.00,,,-99.99,,2013-02-25 07:43:00,
2013-02-24 22:48:00,28.7,27.7,0.00,ENE,59,11.7,-999.0,95,0.00,,,-99.99,,2013-02-25 07:48:00,
2013-02-24 22:53:00,28.6,27.7,0.00,ENE,60,10.5,-999.0,96,0.00,,,-99.99,,2013-02-25 07:53:00,
2013-02-24 22:58:00,28.9,27.8,0.00,NE,56,10.7,-999.0,95,0.00,,,-99.99,,2013-02-25 07:58:00,
2013-02-24 23:03:00,28.7,27.5,0.00,ENE,68,10.6,-999.0,95,0.00,,,-99.99,,2013-02-25 08:03:00,
2013-02-24 23:08:00,28.8,27.6,0.00,ENE,73,6.7,-999.0,95,0.00,,,-99.99,,2013-02-25 08:08:00,
2013-02-24 23:13:00,28.9,27.5,0.00,ENE,66,4.2,-999.0,94,0.00,,,-99.99,,2013-02-25 08:13:00,
2013-02-24 23:18:00,28.9,27.5,0.00,ESE,117,3.1,-999.0,94,0.00,,,-99.99,,2013-02-25 08:18:00,
2013-02-24 23:23:00,29.1,27.7,0.00,ESE,122,3.5,-999.0,94,0.00,,,-99.99,,2013-02-25 08:23:00,
2013-02-24 23:28:00,29.1,27.7,0.00,SE,136,6.6,-999.0,94,0.00,,,-99.99,,2013-02-25 08:28:00,
2013-02-24 23:33:00,29.1,27.6,0.00,SE,137,7.0,-999.0,94,0.00,,,-99.99,,2013-02-25 08:33:00,
2013-02-24 23:38:00,29.0,27.6,0.00,SSE,152,7.4,-999.0,94,0.00,,,-99.99,,2013-02-25 08:38:00,
2013-02-24 23:43:00,29.0,27.8,0.00,South,176,6.0,-999.0,95,0.00,,,-99.99,,2013-02-25 08:43:00,
2013-02-24 23:48:00,29.0,27.9,0.00,South,180,3.5,-999.0,95,0.00,,,-99.99,,2013-02-25 08:48:00,
2013-02-24 23:53:00,29.1,28.0,0.00,South,183,2.8,-999.0,95,0.00,,,-99.99,,2013-02-25 08:53:00,
2013-02-24 23:58:00,28.9,27.8,0.00,SW,233,2.1,-999.0,96,0.00,,,-99.99,,2013-02-25 08:58:00,